Home > Weather > Kaohsiung > Past weeks

Flag for Taiwan Weather for the Past 2 Weeks in Kaohsiung, Taiwan

Now
75 °F

Passing clouds.


Feels Like: 76 °F
Forecast: 74 / 88 °F
Wind: 3 mph from Northeast

Location: Kaohsiung International Airport

Current Time: May 1, 2016 at 4:58:52 AM

Latest Report: May 1, 2016 at 4:00 AM


Visibility: 2 mi

Pressure: 29.86 "Hg

Humidity: 78%

Dew Point: 68 °F

Location of KaohsiungLocation

Historic Weather in Kaohsiung — Graph

°F

Kaohsiung Temperature Yesterday

Maximum temperature yesterday: 84 °F (at 10:00 AM)
Minimum temperature yesterday: 73 °F (at 2:00 AM)
Average temperature yesterday: 79 °F

High & Low Weather Summary for the Past Weeks

 TemperatureHumidityPressure
High90 °F (Apr 18, 1:00 PM)100% (Apr 16, 3:00 AM)30.09 "Hg (Apr 16, 3:00 AM)
Low70 °F (Apr 19, 2:00 AM)49% (Apr 22, 12:00 PM)29.74 "Hg (Apr 27, 3:30 PM)
Average82 °F74%29.89 "Hg
* Reported Apr 16 3:00 AM — May 1 3:00 AM, Kaohsiung, Weather by CustomWeather, © 2016

Note: Actual official high and low records may vary slightly from our data, if they occured in-between our weather recording intervals... More about our weather records

Advertising

Kaohsiung Weather History for the Previous 24 Hours

Scroll right to see more
 ConditionsComfort  
Time TempWeatherWind HumidityBarometerVisibility
3:00 AM
Sun, May 1
75 °FPassing clouds.3 mph78%29.86 "Hg2 mi
2:00 AM75 °FPassing clouds.5 mph74%29.86 "Hg2 mi
1:00 AM77 °FPassing clouds.6 mph69%29.89 "Hg3 mi
12:00 AM77 °FPassing clouds.5 mph65%29.92 "Hg3 mi
11:30 PM
Sat, Apr 30
77 °FPassing clouds.5 mph65%29.92 "Hg3 mi
11:00 PM79 °FPassing clouds.5 mph65%29.92 "Hg3 mi
10:30 PM79 °FPassing clouds.2 mph65%29.92 "Hg4 mi
10:00 PM79 °FPassing clouds.3 mph70%29.92 "Hg4 mi
9:30 PM79 °FPassing clouds.2 mph70%29.92 "Hg5 mi
9:00 PM79 °FPassing clouds.3 mph70%29.89 "Hg5 mi
8:30 PM79 °FPassing clouds.3 mph70%29.89 "Hg4 mi
8:00 PM79 °FPassing clouds.7 mph70%29.89 "Hg4 mi
7:30 PM79 °FPassing clouds.8 mph74%29.89 "Hg3 mi
7:00 PM79 °FPassing clouds.7 mph74%29.89 "Hg3 mi
6:30 PM79 °FPassing clouds.8 mph74%29.86 "Hg4 mi
6:00 PM79 °FPartly sunny.8 mph74%29.86 "Hg4 mi
5:30 PM81 °FBroken clouds.6 mph70%29.86 "Hg4 mi
5:00 PM81 °FBroken clouds.7 mph70%29.86 "Hg4 mi
4:30 PM81 °FPartly sunny.8 mph70%29.86 "Hg4 mi
4:00 PM82 °FBroken clouds.10 mph66%29.86 "Hg3 mi
3:30 PM82 °FPartly sunny.10 mph66%29.86 "Hg3 mi
3:00 PM82 °FPartly sunny.10 mph66%29.86 "Hg3 mi
2:30 PM82 °FPartly sunny.10 mph66%29.86 "Hg3 mi
2:00 PM82 °FPartly sunny.10 mph66%29.89 "Hg2 mi
1:30 PM82 °FPartly sunny.9 mph66%29.89 "Hg2 mi
1:00 PM82 °FBroken clouds.10 mph66%29.89 "Hg2 mi
12:30 PM82 °FScattered clouds.12 mph66%29.89 "Hg3 mi
12:00 PM84 °FScattered clouds.10 mph58%29.92 "Hg3 mi
11:00 AM84 °FScattered clouds.10 mph58%29.92 "Hg4 mi
10:30 AM84 °FScattered clouds.10 mph58%29.92 "Hg4 mi
10:00 AM84 °FPassing clouds.3 mph55%29.92 "Hg4 mi
9:30 AM82 °FPassing clouds.3 mph58%29.92 "Hg5 mi
8:30 AM81 °FScattered clouds.6 mph62%29.92 "Hg5 mi
7:30 AM77 °FScattered clouds.7 mph69%29.92 "Hg5 mi
7:00 AM75 °FScattered clouds.8 mph74%29.92 "Hg5 mi
6:30 AM75 °FBroken clouds.6 mph74%29.92 "Hg5 mi
6:00 AM73 °FBroken clouds.6 mph78%29.92 "Hg4 mi
5:00 AM73 °FPartly cloudy.3 mph78%29.89 "Hg4 mi
4:00 AM73 °FPassing clouds.6 mph78%29.89 "Hg4 mi
Weather by CustomWeather, © 2016

See weather overviewHow to use our weather pages